www.pogodaiklimat.ru

Погода и климат >> Архив погоды >> Россия >> Чукотка >> Илирней


АРХИВ ПОГОДЫ в Илирнее

Время (UTC), дата Ветер
(напр.,м/с)
 
Видим.   Явления Облачность Т
(С)
Тd
(С)
f
(%)
Тe
(С)
Тes
(С)
Комфортность P
(гПа)
Po
(гПа)
Тmin
(С)
Tmax
(С)
R
(мм)
R24
(мм)
S
(см)
00 17.01 штиль 0
{3}
50 км {снег} 10/0
[As op]
-33.0 -34.9 83 -33 -33 опасность
обморожения
1026.0 974.0
03 17.01 З 2
{5}
50 км 10/0
[Ac und]
-32.8 -34.4 85 -41 -41 опасность
обморожения
1024.1 973.8
06 17.01 штиль 0
{4}
20 км 10/0
[Ac und]
-33.3 -35.0 85 -33 -33 опасность
обморожения
1024.2 973.9
09 17.01 штиль 0
{4}
4000 м слаб. снег 10/0
[As op]
-33.8 -35.5 85 -34 -34 опасность
обморожения
1023.4 973.1 -32.6 0.2
12 17.01 штиль 0
{2}
4000 м слаб. снег 10/0
[As op]
-33.4 -35.0 85 -33 -33 опасность
обморожения
1023.5 973.4
15 17.01 штиль 0
{3}
4000 м слаб. снег 10/0
[As op]
-33.1 -34.7 85 -33 -33 опасность
обморожения
1023.9 973.8
18 17.01 штиль 0
{1}
4000 м слаб. снег 10/0
[As op]
-33.0 -34.7 85 -33 -33 опасность
обморожения
1024.1 974.0
21 17.01 С 2
{5}
4000 м слаб. снег 10/0
[As op]
-33.8 -35.5 85 -42 -42 опасность
обморожения
1024.2 971.2 -33.8 0.2 22
00 18.01 С 1
{8}
50 км позёмок {снег} 10/0
[As op]
-32.9 -34.4 86 -37 -37 опасность
обморожения
1021.2 971.1
03 18.01 З 5
{8}
50 км позёмок 10/0
[Ac und]
-33.2 -34.7 86 -47 -47 опасность
обморожения
1021.5 971.2
06 18.01 С 2
{8}
20 км позёмок 10/0
[Ac und]
-33.8 -35.5 85 -42 -42 опасность
обморожения
1021.5 971.3
09 18.01 штиль 0
{4}
20 км {метель} 10/0
[Ac und]
-34.2 -35.8 85 -34 -34 опасность
обморожения
1022.3 972.1 -32.9 0.0
12 18.01 С 1
{4}
20 км 10/0
[Ac und]
-36.5 -38.1 85 -41 -41 опасность
обморожения
1024.3 973.3
15 18.01 С 1
{4}
20 км 10/0
[Ac und]
-37.0 -38.8 83 -42 -42 опасность
обморожения
1024.5 973.5
18 18.01 штиль 0
{4}
20 км 10/0
[Ac und]
-36.2 -38.4 80 -36 -36 опасность
обморожения
1025.5 974.5
21 18.01 штиль 0
{3}
20 км 10/0
[Ac und]
-37.1 -38.4 88 -37 -37 опасность
обморожения
1026.5 975.8 -37.4 22
00 19.01 штиль 0
{3}
50 км ясно -36.0 -38.1 81 -36 -36 опасность
обморожения
1026.3 975.9
03 19.01 штиль 0
{2}
50 км ясно -37.1 -38.8 84 -37 -37 опасность
обморожения
1026.9 975.8
06 19.01 штиль 0
{1}
20 км ясно -37.4 -38.8 87 -37 -37 опасность
обморожения
1027.3 976.2
09 19.01 штиль 0
{1}
4000 м слаб. снег 10/0
[As op]
-37.0 -38.5 86 -37 -37 опасность
обморожения
1028.2 977.0 -36.8 0.0
12 19.01 штиль 0
{1}
20 км {снег} 10/0
[Ac und]
-36.5 -37.6 89 -37 -37 опасность
обморожения
1029.1 977.9
15 19.01 штиль 0
{2}
20 км 6/0
[Ac As]
-37.2 -38.8 85 -37 -37 опасность
обморожения
1029.8 978.6
18 19.01 штиль 0
{2}
20 км ясно -37.0 -38.8 83 -37 -37 опасность
обморожения
1029.0 979.1
21 19.01 штиль 0
{2}
20 км ясно -37.0 -38.8 83 -37 -37 опасность
обморожения
1029.8 979.7 -37.2 22
00 20.01 штиль 0
{1}
50 км ясно -37.5 -38.8 88 -38 -37 опасность
обморожения
1029.1 979.8
03 20.01 штиль 0 50 км ясно -38.0 -39.7 84 -38 -38 опасность
обморожения
1031.0 979.5
06 20.01 штиль 0
{3}
20 км ясно -37.8 -38.8 90 -38 -38 опасность
обморожения
1022.5 979.3
09 20.01 штиль 0
{1}
20 км ясно -38.2 -39.8 85 -38 -38 опасность
обморожения
1031.6 979.8 -37.0
12 20.01 штиль 0
{1}
20 км ясно -38.4 -40.1 84 -38 -38 опасность
обморожения
1031.8 980.3
15 20.01 штиль 0 20 км ясно -38.6 -40.1 86 -39 -39 опасность
обморожения
1032.6 980.9
18 20.01 штиль 0
{1}
20 км ясно -38.6 -40.1 86 -39 -39 опасность
обморожения
1033.0 981.2
21 20.01 штиль 0
{1}
20 км ясно -38.3 -39.7 87 -38 -38 опасность
обморожения
1031.5 980.0 -38.6 22
00 21.01 штиль 0
{1}
50 км ясно -38.4 -40.1 84 -38 -38 опасность
обморожения
1031.3 979.8
03 21.01 штиль 0 50 км ясно -38.0 -39.7 84 -38 -38 опасность
обморожения
1030.8 979.3
06 21.01 штиль 0 20 км ясно -38.8 -40.1 87 -39 -39 опасность
обморожения
1031.3 979.6
09 21.01 штиль 0 20 км ясно -39.4 -41.6 79 -39 -39 опасность
обморожения
1032.1 980.2 -38.0
12 21.01 штиль 0 20 км ясно -40.0 -41.5 85 -40 -40 опасность
обморожения
1032.5 980.3
15 21.01 штиль 0 20 км ясно -40.3 -42.0 84 -40 -40 опасность
обморожения
1032.5 980.3
18 21.01 штиль 0 20 км ясно -40.3 -42.0 84 -40 -40 опасность
обморожения
1032.3 980.1
21 21.01 штиль 0
{1}
20 км ясно -40.1 -41.5 86 -40 -40 опасность
обморожения
1033.0 980.8 -40.3 22
00 22.01 штиль 0 50 км ясно -38.6 -40.1 86 -39 -39 опасность
обморожения
1033.0 980.4
03 22.01 штиль 0
{1}
50 км ясно -38.0 -39.8 83 -38 -38 опасность
обморожения
1031.2 979.7
06 22.01 штиль 0
{1}
20 км ясно -38.1 -39.7 85 -38 -38 опасность
обморожения
1030.5 979.0
09 22.01 штиль 0
{1}
20 км ясно -38.4 -40.1 84 -38 -38 опасность
обморожения
1030.7 979.2 -38.0
12 22.01 штиль 0 20 км ясно -38.8 -40.5 84 -39 -39 опасность
обморожения
1030.1 978.5
15 22.01 штиль 0 20 км ясно -39.1 -40.1 90 -39 -39 опасность
обморожения
1031.2 977.4
18 22.01 штиль 0
{1}
20 км ясно -38.8 -40.5 84 -39 -39 опасность
обморожения
1029.2 976.7
21 22.01 штиль 0 50 км ясно -39.4 -41.6 79 -39 -39 опасность
обморожения
1032.1 976.9 -39.4 22
00 23.01 штиль 0
{1}
50 км ясно -38.0 -39.7 84 -38 -38 опасность
обморожения
1028.1 976.8
03 23.01 штиль 0 50 км ясно -38.1 -39.7 85 -38 -38 опасность
обморожения
1028.4 976.5
06 23.01 штиль 0 20 км ясно -38.3 -39.7 87 -38 -38 опасность
обморожения
1028.8 977.4
09 23.01 штиль 0 20 км ясно -38.5 -40.1 85 -39 -39 опасность
обморожения
1029.5 977.9 -38.0
12 23.01 штиль 0
{1}
20 км ясно -38.8 -40.5 84 -39 -39 опасность
обморожения
1030.0 978.4
15 23.01 штиль 0
{1}
20 км ясно -39.0 -40.5 86 -39 -39 опасность
обморожения
1030.7 979.0
18 23.01 штиль 0 20 км ясно -39.3 -41.0 84 -39 -39 опасность
обморожения
1031.0 979.3
21 23.01 штиль 0 20 км ясно -39.2 -41.0 83 -39 -39 опасность
обморожения
1031.0 978.0 -39.3 22

 

Местоположение метеостанции Илирней (Чукотка, Россия): широта 67.25 долгота 167.90 высота над уровнем моря 354 м.

В архиве по умолчанию представлена погода в Илирнее за последнюю неделю. Архивные данные за месяц целиком и за предыдущие месяцы, начиная с января 2011 года, Вы можете получить, выбрав интересующий диапазон дат из раскрывающегося списка и нажав кнопку "Ввод!".


*Определитесь, кто Вы:
робот инопланетянин человек

Внимание! Время в таблицах - всемирное. Для получения местного времени необходимо прибавить поправку, которая равна 12 ч.

Смотрите также архив погоды в соседних городах и на ближайших метеорологических станциях:

Погода в Билибино (Чукотка, Россия) (109 км)
Погода в Баимке (Чукотка, Россия) (180 км)
Погода в Островном (Чукотка, Россия) (187 км)
Погода в Чауне (Чукотка, Россия) (215 км)
Погода в Эньмувееме (Чукотка, Россия) (255 км)
Погода в Раучуе (Чукотка, Россия) (257 км)
Погода в Майской (Чукотка, Россия) (276 км)
Погода в Певеке (Чукотка, Россия) (288 км)
Погода на 21 км (Чукотка, Россия) (290 км)
Погода в Комсомольской (Чукотка, Россия) (291 км)

Пояснения к столбцам:

Ветер - указаны скорость ветра в м/с - средняя за 10 мин, порывы в срок и между сроками (в фигурных скобках) и направление, откуда дует ветер: С - северный, СВ - северо-восточный, В - восточный, ЮВ - юго-восточный, Ю - южный, ЮЗ - юго-западный, З - западный, СЗ - северо-западный.
Видимость - горизонтальная дальность видимости в метрах или километрах. При видимости от 1 до 10 км при отсутствии осадков обычно наблюдается дымка, при ухудшении видимости до 1 км и менее - туман. В сухую погоду видимость может ухудшаться дымом, пылью или мглою.
Явления - указаны атмосферные явления, наблюдавшиеся в срок или в последний час перед сроком; фигурными скобками обозначены явления, наблюдавшиеся между сроками (за 1-3 часа до срока); квадратными скобками обозначены град или гололедные отложения с указанием их диаметра в мм.
Облачность - указаны через наклонную черту общая и нижняя облачность в баллах и высота нижней границы облаков в метрах; квадратными скобками обозначены формы облаков: Ci - перистые, Cs - перисто-слоистые, Cc - перисто-кучевые, Ac - высококучевые, As - высокослоистые, Sc - слоисто-кучевые, Ns - слоисто-дождевые, Cu - кучевые, Cb - кучево-дождевые. Подробнее классификацию облаков см. в Атласе облаков (PDF).
T - Температура воздуха - температура, измеренная на высоте 2 м над землей.
Td - Температура точки росы - температура, при понижении до которой содержащийся в воздухе водяной пар достигнет насыщения.
f - Относительная влажность воздуха - влажноcть воздуха, измеренная на высоте 2 м над землей.
Te - Эффективная температура - температура, которую ощущает одетый по сезону человек в тени. Характеристика душности погоды. При расчете учитывается влияние влажности воздуха и скорости ветра на теплоощущения человека.
Tes - Эффективная температура на солнце - температура, которую ощущает человек, с поправкой на солнечный нагрев. Характеристика знойности погоды. Зависит от высоты солнца над горизонтом, облачности и скорости ветра. Ночью, в пасмурную погоду, а также при ветре 12 м/с и более поправка равна нулю.
P - Атмосферное давление - приведенное к уровню моря атмосферное давление.
Po - Атмосферное давление - измеренное на уровне метеостанции атмосферное давление.
Tmin - Минимальная температура - минимум температуры воздуха на высоте 2 м над землей.
Tmax - Максимальная температура - максимум температуры воздуха на высоте 2 м над землей.
R - Количество осадков - Количество выпавших осадков за период времени, мм. При наведении курсора мыши на число - период времени, за который выпало указанное количество осадков.
R24 - Количество осадков - Количество выпавших осадков за 24 часа, мм.
S - Снежный покров - Высота снежного покрова, см. При наведении курсора мыши на число - состояние снежного покрова и степень покрытия местности в баллах.